EW6758 Weather Reports


Display with metric or nautical units.
time (UTC)temp
F
wind
direction
speed
MPH
gust
MPH
rain 1hr
in
rain 24hr
in
rain mn
in
humidity
%
barometer
mb
20260505003403 73 203 3.0 5.0 0.00 0.00 0.00 68 1013.2
20260505001304 74 202 3.0 5.0 0.00 0.00 0.00 66 1013.2
20260504235304 76 250 0.0 0.0 0.00 0.00 0.00 62 1013.5
20260504233403 78 261 2.0 3.0 0.00 0.00 0.00 58 1013.5
20260504231303 79 208 7.0 10.0 0.00 0.00 0.00 56 1013.9
20260504225304 80 232 0.0 0.0 0.00 0.00 0.00 54 1013.9
20260504223402 80 222 1.0 3.0 0.00 0.00 0.00 54 1014.2
20260504221303 81 162 3.0 5.0 0.00 0.00 0.00 56 1014.6
20260504215304 80 207 1.0 3.0 0.00 0.00 0.00 54 1014.6
20260504213404 82 12 0.0 0.0 0.00 0.00 0.00 51 1014.9
20260504211303 79 236 2.0 3.0 0.00 0.00 0.00 51 1015.2
20260504205304 81 264 1.0 3.0 0.00 0.00 0.00 52 1015.2
20260504203432 80 198 7.0 8.0 0.00 0.00 0.00 52 1015.9
20260504201333 79 202 5.0 8.0 0.00 0.00 0.00 51 1015.9
20260504195304 79 231 7.0 10.0 0.00 0.00 0.00 49 1016.3
20260504193403 79 229 2.0 3.0 0.00 0.00 0.00 47 1016.6
20260504191302 78 225 2.0 3.0 0.00 0.00 0.00 46 1016.9
20260504185304 78 218 7.0 10.0 0.00 0.00 0.00 46 1017.3
20260504183403 78 215 9.0 10.0 0.00 0.00 0.00 48 1017.6
20260504181303 77 198 3.0 5.0 0.00 0.00 0.00 47 1017.9
20260504175304 77 322 1.0 3.0 0.00 0.00 0.00 50 1017.9
20260504173403 76 191 6.0 10.0 0.00 0.00 0.00 53 1018.3
20260504171302 75 239 7.0 8.0 0.00 0.00 0.00 51 1018.6
20260504141302 66 180 3.0 5.0 0.00 0.00 0.00 76 1019.6
20260504080603 55 232 0.0 0.0 0.00 0.00 0.00 96 1019.3
20260504050603 56 295 0.0 0.0 0.00 0.00 0.00 96 1020.3
20260504044703 56 240 0.0 0.0 0.00 0.00 0.00 96 1020.7
20260504042703 56 250 0.0 0.0 0.00 0.00 0.00 96 1020.7
20260504040632 56 259 0.0 0.0 0.00 0.00 0.00 96 1020.7
20260504034702 57 258 0.0 0.0 0.00 0.00 0.00 95 1020.7
20260504032733 57 257 0.0 0.0 0.00 0.00 0.00 95 1020.7
20260504030603 57 256 0.0 0.0 0.00 0.00 0.00 94 1020.7
20260504024703 59 257 0.0 0.0 0.00 0.00 0.00 93 1020.7
20260504022733 59 256 0.0 0.0 0.00 0.00 0.00 92 1020.7
20260504020632 60 257 0.0 0.0 0.00 0.00 0.00 90 1020.3
20260504014702 61 226 0.0 0.0 0.00 0.00 0.00 88 1020.0
20260504012733 63 262 0.0 0.0 0.00 0.00 0.00 86 1019.6
20260504010603 65 262 0.0 0.0 0.00 0.00 0.00 84 1019.6
20260504004703 67 262 0.0 0.0 0.00 0.00 0.00 77 1019.3